| time (UTC) | temp F | wind direction | speed knots | gust knots | rain 1hr in | rain 24hr in | rain mn in | humidity % | barometer mb |
| 20260504081528 | 53 | 280 | 0.0 | 3.5 | 0.00 | 0.01 | 0.00 | 49 | 1003.8 |
| 20260504050115 | 49 | 174 | 7.8 | 14.8 | 0.00 | 0.01 | 0.01 | 63 | 1004.1 |
| 20260504044558 | 48 | 183 | 7.0 | 9.6 | 0.00 | 0.01 | 0.01 | 63 | 1004.2 |
| 20260504043108 | 50 | 177 | 7.0 | 9.6 | 0.00 | 0.01 | 0.01 | 59 | 1004.3 |
| 20260504041556 | 51 | 164 | 7.0 | 12.2 | 0.00 | 0.01 | 0.01 | 58 | 1004.4 |
| 20260504040059 | 51 | 166 | 7.8 | 12.2 | 0.00 | 0.01 | 0.01 | 59 | 1004.5 |
| 20260504034559 | 51 | 179 | 6.1 | 8.7 | 0.00 | 0.01 | 0.01 | 57 | 1004.6 |
| 20260504033058 | 51 | 179 | 5.2 | 7.8 | 0.00 | 0.01 | 0.01 | 55 | 1004.6 |
| 20260504031603 | 53 | 181 | 5.2 | 8.7 | 0.00 | 0.01 | 0.01 | 53 | 1004.6 |
| 20260504030054 | 53 | 280 | 1.7 | 3.5 | 0.00 | 0.01 | 0.01 | 51 | 1004.6 |
| 20260504024555 | 55 | 280 | 0.0 | 3.5 | 0.00 | 0.01 | 0.01 | 49 | 1004.6 |
| 20260504023053 | 56 | 359 | 0.0 | 2.6 | 0.00 | 0.01 | 0.01 | 46 | 1004.4 |
| 20260504021553 | 58 | 282 | 1.7 | 3.5 | 0.00 | 0.01 | 0.01 | 44 | 1004.4 |
| 20260504020052 | 62 | 283 | 1.7 | 2.6 | 0.00 | 0.01 | 0.01 | 40 | 1004.4 |
| 20260504014557 | 65 | 282 | 0.9 | 1.7 | 0.00 | 0.01 | 0.01 | 36 | 1004.4 |
| 20260504013055 | 66 | 283 | 2.6 | 6.1 | 0.00 | 0.01 | 0.01 | 33 | 1004.5 |
| 20260504011549 | 66 | 283 | 2.6 | 7.8 | 0.00 | 0.01 | 0.01 | 34 | 1004.7 |
| 20260504010107 | 67 | 287 | 3.5 | 7.0 | 0.00 | 0.01 | 0.01 | 34 | 1004.7 |
| 20260504004547 | 67 | 271 | 6.1 | 10.4 | 0.00 | 0.01 | 0.01 | 34 | 1004.7 |
| 20260504003045 | 68 | 280 | 4.3 | 8.7 | 0.00 | 0.01 | 0.01 | 37 | 1004.8 |
| 20260504001551 | 68 | 299 | 5.2 | 10.4 | 0.00 | 0.01 | 0.01 | 38 | 1004.9 |
| 20260504000045 | 68 | 285 | 2.6 | 11.3 | 0.00 | 0.01 | 0.01 | 40 | 1005.2 |
| 20260503234540 | 68 | 289 | 7.8 | 11.3 | 0.00 | 0.01 | 0.01 | 38 | 1005.3 |
| 20260503233042 | 68 | 316 | 7.8 | 10.4 | 0.00 | 0.01 | 0.01 | 38 | 1005.3 |
| 20260503231543 | 68 | 290 | 8.7 | 14.8 | 0.00 | 0.01 | 0.01 | 37 | 1005.5 |
| 20260503230039 | 68 | 278 | 7.8 | 16.5 | 0.00 | 0.01 | 0.01 | 38 | 1005.5 |
| 20260503224540 | 68 | 287 | 9.6 | 16.5 | 0.00 | 0.01 | 0.01 | 37 | 1005.5 |
| 20260503223035 | 68 | 307 | 8.7 | 14.8 | 0.00 | 0.01 | 0.01 | 38 | 1005.7 |
| 20260503221537 | 68 | 272 | 8.7 | 13.0 | 0.00 | 0.01 | 0.01 | 36 | 1005.9 |
| 20260503220031 | 68 | 276 | 6.1 | 12.2 | 0.00 | 0.01 | 0.01 | 39 | 1006.2 |
| 20260503214533 | 67 | 279 | 6.1 | 12.2 | 0.01 | 0.01 | 0.01 | 39 | 1006.4 |
| 20260503213032 | 67 | 237 | 6.1 | 13.0 | 0.01 | 0.01 | 0.01 | 36 | 1006.6 |
| 20260503211525 | 66 | 238 | 6.1 | 13.9 | 0.01 | 0.01 | 0.01 | 38 | 1007.1 |
| 20260503210039 | 64 | 197 | 11.3 | 20.0 | 0.01 | 0.01 | 0.01 | 40 | 1007.5 |
| 20260503204525 | 68 | 268 | 8.7 | 15.6 | 0.00 | 0.00 | 0.00 | 38 | 1007.5 |
| 20260503203020 | 67 | 218 | 2.6 | 14.8 | 0.00 | 0.00 | 0.00 | 39 | 1007.7 |
| 20260503201526 | 63 | 189 | 7.0 | 17.4 | 0.00 | 0.00 | 0.00 | 43 | 1007.9 |
| 20260503200021 | 66 | 278 | 8.7 | 14.8 | 0.00 | 0.00 | 0.00 | 38 | 1007.8 |
| 20260503194517 | 66 | 239 | 4.3 | 11.3 | 0.00 | 0.00 | 0.00 | 39 | 1008.0 |
| 20260503193015 | 66 | 266 | 1.7 | 6.1 | 0.00 | 0.00 | 0.00 | 40 | 1008.3 |
| 20260503191514 | 66 | 327 | 2.6 | 7.0 | 0.00 | 0.00 | 0.00 | 39 | 1008.4 |
| 20260503190012 | 66 | 187 | 3.5 | 5.2 | 0.00 | 0.00 | 0.00 | 39 | 1008.7 |
| 20260503184510 | 67 | 181 | 3.5 | 10.4 | 0.00 | 0.00 | 0.00 | 40 | 1008.9 |
| 20260503183005 | 64 | 212 | 2.6 | 10.4 | 0.00 | 0.00 | 0.00 | 44 | 1009.3 |
| 20260503181505 | 64 | 243 | 2.6 | 7.0 | 0.00 | 0.00 | 0.00 | 43 | 1009.6 |
| 20260503180109 | 64 | 91 | 5.2 | 11.3 | 0.00 | 0.00 | 0.00 | 45 | 1009.3 |
| 20260503174558 | 62 | 78 | 1.7 | 8.7 | 0.00 | 0.00 | 0.00 | 45 | 1009.7 |
| 20260503173149 | 61 | 87 | 7.0 | 9.6 | 0.00 | 0.00 | 0.00 | 49 | 1009.9 |
| 20260503171555 | 59 | 158 | 2.6 | 13.9 | 0.00 | 0.00 | 0.00 | 54 | 1010.0 |
| 20260503120106 | 38 | 174 | 0.9 | 4.3 | 0.00 | 0.00 | 0.00 | 79 | 1012.2 |